Location: Beang
(6.6177°N, 10.9863°W)
Time: 22:18:16
(UTC+00:00)

USA 229 DEB - Pass Details

Date: 07 June 2020
Orbit: 983 x 1229 km, 63.4° (Epoch: 24 June)

Event Time Altitude Azimuth Distance (km) Brightness Sun altitude
Rises 04:57:11 0° 319° (NW) 4,107 6.6 -21.3°
Reaches altitude 10° 05:00:11 10° 311° (NW) 3,161 5.9 -20.6°
Maximum altitude 05:06:58 35° 248° (WSW) 1,868 4.4 -19.1°
Drops below altitude 10° 05:13:48 10° 185° (S) 3,168 5.9 -17.6°
Sets 05:16:50 0° 177° (S) 4,117 6.5 -16.9°
